Flag for U.S.A. Weather past 2 weeks in Bozeman, Montana, U.S.A.

Now
51 °F

Sunny.


Feels Like: 49 °F
Forecast: 24 / 50 °F
Wind: 6 mph from Southwest

Location: Gallatin Field

Current Time: Mar 6, 2015 at 1:11:19 PM

Latest Report: Mar 6, 2015 at 11:56 AM


Visibility: 10 mi

Pressure: 30.35 "Hg

Humidity: 27%

Dew point: 18 °F

Location of BozemanLocation

Historic Weather in Bozeman — Graph

°F

Bozeman temperature yesterday

Maximum temperature yesterday: 48 °F (at 2:56 PM)
Minimum temperature yesterday: 11 °F (at 6:56 AM)
Average temperature yesterday: 30 °F

Past Weeks' High & Low Weather Summary

 TemperatureHumidityPressure
High51 °F (Mar 6, 11:56 AM)96% (Feb 20, 5:56 AM)30.72 "Hg (Feb 20, 5:56 AM)
Low-7 °F (Feb 22, 7:56 AM)21% (Mar 5, 2:56 PM)29.82 "Hg (Mar 2, 3:56 PM)
Average21 °F65%30.28 "Hg
* Reported Feb 19 11:56 AM — Mar 6 11:56 AM, Bozeman, Weather by CustomWeather, © 2015

Note: Actual official high and low records may vary slightly from our data, if they occured in-between our weather recording intervals... More about our weather records

Advertising

Bozeman weather history for previous 24 hours

 ConditionsComfort  
Time TempWeatherWind HumidityBarometerVisibility
11:56 AM
Fri, Mar 6
51 °FSunny.6 mph27%30.35 "Hg10 mi
10:56 AM46 °FSunny.No wind34%30.37 "Hg10 mi
9:56 AM41 °FSunny.No wind43%30.37 "Hg10 mi
8:56 AM38 °FSunny.6 mph58%30.39 "Hg10 mi
7:56 AM28 °FSunny.3 mph75%30.40 "Hg10 mi
6:56 AM25 °FSunny.3 mph75%30.39 "Hg10 mi
5:56 AM26 °FClear.6 mph71%30.38 "Hg10 mi
4:56 AM25 °FPassing clouds.7 mph78%30.34 "Hg10 mi
3:56 AM27 °FMostly cloudy.6 mph78%30.32 "Hg10 mi
2:56 AM25 °FOvercast.No wind81%30.34 "Hg10 mi
1:56 AM26 °FPassing clouds.7 mph77%30.34 "Hg10 mi
12:56 AM23 °FClear.3 mph81%30.33 "Hg10 mi
11:56 PM
Thu, Mar 5
27 °FClear.3 mph75%30.33 "Hg10 mi
10:56 PM27 °FClear.6 mph75%30.35 "Hg10 mi
9:56 PM35 °FOvercast.3 mph54%30.33 "Hg10 mi
8:56 PM31 °FOvercast.6 mph73%30.34 "Hg10 mi
7:56 PM36 °FOvercast.No wind52%30.35 "Hg10 mi
6:56 PM39 °FOvercast.No wind43%30.36 "Hg10 mi
5:56 PM39 °FPassing clouds.3 mph39%30.32 "Hg10 mi
4:56 PM46 °FOvercast.5 mph27%30.29 "Hg10 mi
3:56 PM48 °FSunny.6 mph22%30.29 "Hg10 mi
2:56 PM48 °FPassing clouds.3 mph21%30.29 "Hg10 mi
1:56 PM46 °FSunny.5 mph24%30.29 "Hg10 mi
Weather by CustomWeather, © 2015

See weather overviewHow to use our weather pages